Vertical_Velocity
0 0 -1 -0 -13 -7 -1 -5 0 -2 -1 6 1 -4 -4 1 0 -8 1 2 2 -2 -1 0 0 2 2 2 1 1 0 2 1 1 0 -0 -2 -1 -3 -1 -2 -2 1 -2 -1 -0 0 1 -1
1 2 -1 -1 -10 -3 -5 -2 -0 0 2 0 -4 -1 -4 3 -1 0 -1 0 -1 2 2 1 3 3 0 0 0 2 1 -1 1 3 1 1 -1 -2 -1 1 3 0 3 1 1 1 0 1 0
-0 0 -4 -4 -1 -2 -3 -1 -1 0 3 3 -0 3 2 1 -2 -1 2 1 -0 3 0 5 1 1 4 3 -0 2 4 -0 -2 1 1 -0 0 -1 -1 -3 -4 -5 -4 -4 -4 -4 -4 -2 -3
-3 0 -2 -8 -0 -3 -1 -1 0 -2 0 0 2 -4 0 6 -1 -1 3 2 1 1 -0 -1 3 4 3 -1 3 -1 2 1 0 0 -1 2 0 0 0 1 -0 1 1 0 1 0 -2 -3 -4
-1 -2 -3 -1 -1 -2 -1 2 1 0 1 -0 -1 1 -0 3 3 7 5 4 3 3 2 1 -0 -0 2 1 -4 -1 3 3 2 0 0 -0 -1 -3 -3 -4 -2 -1 -1 -1 1 1 -0 -0 -1
-4 -1 -5 -0 -1 -1 -1 2 2 -1 2 4 -6 -1 2 19 -1 2 9 5 -0 -1 1 8 8 5 8 7 4 -1 4 6 6 5 -0 -4 -5 -4 -1 -1 -3 -2 -2 0 1 -1 -4 -5 -4
-6 -3 -2 -0 -1 -2 -0 3 -1 2 1 1 2 -3 10 -11 3 2 3 0 -2 0 1 1 3 5 13 11 5 7 3 3 7 6 4 3 3 0 -2 -2 -0 -0 -1 -2 -2 0 -1 -2 -3
-2 -5 0 -0 -1 -0 -1 -1 4 -2 2 5 1 1 4 9 4 2 -0 -0 2 -1 -0 2 1 0 3 4 10 14 5 3 1 4 7 6 1 -2 -1 -1 -2 0 1 1 1 1 -0 -3 -2
0 -7 -1 -1 -1 -2 -1 -1 -0 5 -5 -4 12 -6 5 7 8 -1 1 1 1 0 -3 -2 -1 0 -1 -1 1 3 6 12 5 -1 -2 3 8 4 -1 -2 -1 -3 -2 0 2 2 -0 -3 -2
-5 -3 -4 -2 -1 -1 -0 -1 0 -1 0 1 -4 9 7 11 3 -2 -3 -3 1 1 1 0 -1 -2 -3 -0 -1 -1 1 3 7 13 3 1 -0 7 7 5 2 5 2 -1 1 3 3 -2 -1
1 -4 -2 -2 -2 0 -0 -0 1 -1 -1 2 -6 2 4 2 -2 -2 -2 -3 -2 -3 -0 -2 -1 -2 -3 -4 -3 -3 -1 -2 1 2 9 8 4 -3 2 4 4 -2 -1 2 3 3 0 2 0
-1 1 0 -2 1 -1 -1 1 -0 -1 10 0 2 2 4 -1 -2 -0 -0 1 2 2 -2 -1 1 1 -3 -4 -4 0 -3 -7 -5 2 2 4 8 8 2 -2 6 9 5 -3 -5 -2 2 3 1
1 -1 1 -0 -1 -0 2 -1 -2 5 2 3 1 4 1 -1 -1 -2 -1 3 3 0 -0 -0 1 -2 -4 -2 -1 -5 -6 -5 -4 -2 0 11 4 7 6 5 1 -0 6 6 2 3 3 1 0
1 0 -2 1 -0 -0 -0 0 -0 18 5 0 5 0 2 2 1 3 1 0 -0 1 -1 -1 -3 -3 1 0 -2 -1 -4 -0 4 -4 -2 1 5 5 5 5 0 0 -1 6 7 -4 -0 5 4
-0 -1 -2 -1 0 -2 -0 1 0 6 5 -2 1 2 1 1 6 3 4 1 2 1 -2 -2 -1 -0 -2 -3 3 -0 -1 -1 -3 0 2 -1 3 9 4 4 6 2 5 1 2 6 3 -3 4
-2 -2 -1 -4 0 -0 -6 -3 5 4 -7 1 0 1 2 3 3 4 2 3 3 2 1 2 -2 -6 -3 -4 -5 -2 1 1 -1 1 1 -0 2 -1 0 4 7 11 6 5 4 1 -2 4 2
-2 -1 0 -6 0 -1 -5 -0 7 7 -1 0 1 1 1 2 2 2 1 2 3 3 2 2 -2 -6 -5 -3 -2 -2 -1 -1 -1 1 -1 1 2 -0 -1 -3 2 2 11 -0 8 3 5 7 0
-1 0 0 -1 -3 -2 1 1 2 4 0 0 0 0 -1 -1 -0 1 2 4 4 4 4 0 -4 -5 -6 -7 -6 -3 -2 -1 -1 -3 -1 0 1 0 -1 -1 -2 1 3 5 4 6 5 -2 1
0 1 0 -1 -0 -2 -0 0 2 4 -0 2 3 3 2 1 3 1 1 3 -0 -2 -4 -7 -5 -4 -4 -6 -12 -7 -10 -10 -5 -2 -0 -2 -3 1 0 -0 -5 -2 0 -2 5 23 -4 -3 8
1 0 -1 0 -1 -3 -0 0 2 0 2 -1 -1 1 -0 1 0 -0 -1 -3 -5 -5 -5 -3 -2 -2 2 -1 0 1 -4 -2 -3 -8 -4 -3 -1 -0 -2 -1 1 -0 -5 2 3 4 13 -7 16
-0 -1 -0 -3 -1 -2 -2 -5 2 2 -1 1 1 -0 -0 -2 -1 -0 1 1 1 -2 -2 -2 2 3 -2 -4 0 1 3 3 -1 -0 -4 -5 -3 -1 -0 -2 -2 -1 0 -1 3 -2 1 12 10
1 -1 -1 -0 -2 -4 -3 -7 1 1 2 1 2 1 -1 -1 0 -1 -1 1 -0 -0 0 0 -3 -8 -8 -8 -8 -6 -5 -5 -4 -5 -9 -8 -3 -3 -2 -0 -0 -1 -6 1 -0 6 1 4 1
-6 -1 -1 -0 -0 -2 -1 -1 -2 -1 2 1 2 0 0 0 1 1 0 -0 -0 1 -1 -0 -1 1 3 -2 -5 -8 -5 -1 -0 -2 -1 -3 -7 -4 -3 -4 -3 1 -0 -4 -3 -1 1 3 5
-1 -3 -3 -2 -1 1 -5 -4 -4 -2 -5 2 1 1 -0 2 3 3 4 5 5 4 3 -4 -9 -8 -10 -7 -4 -1 -1 -5 -9 -9 -11 -7 -6 -7 -5 -4 -2 -2 -0 -1 -2 -1 3 -1 -1
-4 -4 -3 -4 -2 -7 -0 2 -6 -0 0 -5 -3 -1 0 0 1 1 -1 -2 -4 -7 -7 -8 -5 -1 -0 -1 1 1 1 -0 0 3 -0 -1 -2 -3 -6 -5 -4 -4 -1 -1 -0 -1 2 6 1
-2 -8 -8 -4 -2 -3 -1 -3 -8 -1 -1 0 1 1 0 1 -0 -2 -3 -4 -4 -4 -3 -4 -5 -6 -4 -3 -0 -1 -3 -3 -3 -0 -2 -1 -4 -4 -0 -4 -4 1 -2 0 -1 -0 -4 -1 4
-2 0 -6 -4 -0 -1 -4 -4 -1 1 2 2 0 1 0 1 -2 -2 -2 -3 -3 -4 -5 -6 -4 -2 3 -3 -1 -0 1 0 -4 -3 -2 -2 -1 -1 -3 -1 -3 -2 5 -1 -3 -3 -4 -0 -1
-8 -6 -9 -3 -1 0 -3 -1 -5 2 0 1 2 -2 -0 0 -1 -1 -2 -3 -2 -1 -0 2 3 2 -2 -2 1 2 -1 -3 -1 -3 -4 -3 -2 -2 0 -2 -1 -1 6 1 2 -3 -1 3 11
0 1 -1 -7 -4 -4 -1 -8 -5 -5 -3 -3 -2 -2 0 -0 -1 -1 1 1 3 -1 -0 -3 -5 -4 -3 -2 -7 -9 -9 -6 -3 -3 -5 -7 -3 -2 1 -1 -1 1 -4 0 1 2 -1 0 2
-2 -3 -4 -7 -3 -1 -4 -15 0 -1 -2 -4 -2 -1 -0 1 3 0 -0 2 0 -4 1 -2 -1 -4 -5 -5 -3 -3 -4 -1 -0 -4 -3 -3 -3 -0 -1 -0 1 1 -3 -3 5 -3 3 5 -1
Height
1510 1510 1508 1508 1518 1523 1527 1518 1506 1500 1498 1495 1495 1496 1499 1502 1505 1520 1507 1505 1503 1503 1507 1510 1511 1512 1513 1514 1514 1515 1516 1516 1517 1517 1518 1518 1519 1520 1520 1521 1521 1521 1521 1520 1520 1520 1521 1520 1520
1510 1509 1509 1508 1529 1540 1530 1513 1505 1499 1498 1497 1499 1501 1500 1506 1507 1508 1508 1507 1506 1508 1510 1511 1513 1514 1514 1514 1515 1515 1515 1517 1519 1519 1519 1520 1520 1520 1522 1522 1521 1522 1522 1521 1521 1522 1521 1521 1521
1511 1510 1510 1519 1537 1534 1527 1506 1503 1499 1499 1497 1500 1502 1505 1511 1512 1511 1510 1509 1509 1511 1512 1513 1514 1515 1515 1515 1516 1517 1517 1517 1519 1520 1520 1521 1520 1521 1521 1522 1522 1522 1522 1521 1521 1522 1522 1522 1521
1511 1512 1514 1526 1525 1520 1515 1507 1502 1501 1498 1500 1502 1507 1513 1514 1514 1513 1512 1512 1512 1514 1514 1515 1516 1517 1517 1516 1517 1517 1518 1518 1519 1519 1520 1521 1521 1521 1522 1522 1522 1523 1522 1522 1521 1521 1521 1521 1521
1511 1513 1526 1529 1527 1519 1511 1506 1501 1504 1505 1505 1504 1512 1514 1515 1515 1515 1514 1514 1515 1516 1516 1517 1517 1519 1519 1518 1518 1518 1518 1518 1519 1519 1519 1520 1521 1521 1522 1523 1523 1523 1523 1522 1522 1521 1521 1521 1520
1513 1516 1536 1539 1526 1518 1511 1509 1505 1507 1510 1510 1509 1512 1518 1519 1516 1516 1514 1515 1516 1517 1518 1519 1520 1521 1520 1519 1519 1519 1519 1519 1519 1519 1519 1519 1519 1520 1521 1521 1522 1522 1522 1522 1521 1520 1520 1520 1520
1515 1523 1536 1530 1527 1521 1517 1511 1510 1509 1510 1511 1511 1515 1521 1518 1517 1516 1515 1514 1514 1515 1516 1517 1518 1518 1520 1520 1520 1520 1520 1520 1520 1519 1519 1519 1519 1520 1520 1521 1521 1521 1520 1520 1520 1520 1519 1519 1518
1515 1519 1528 1527 1529 1525 1517 1515 1514 1511 1512 1513 1513 1517 1522 1523 1519 1517 1515 1514 1514 1515 1516 1516 1516 1515 1516 1516 1518 1520 1520 1520 1519 1518 1518 1518 1518 1519 1519 1520 1520 1520 1520 1519 1519 1519 1519 1519 1518
1515 1528 1536 1524 1522 1520 1516 1516 1516 1517 1515 1514 1517 1518 1523 1521 1520 1517 1516 1515 1515 1514 1515 1515 1515 1515 1516 1515 1516 1517 1518 1520 1519 1519 1518 1517 1517 1517 1518 1518 1518 1518 1519 1519 1518 1517 1517 1517 1517
1516 1529 1526 1518 1515 1516 1515 1515 1516 1519 1519 1520 1519 1522 1522 1521 1517 1515 1516 1516 1515 1515 1515 1515 1516 1516 1517 1516 1515 1515 1515 1516 1517 1519 1518 1516 1516 1516 1517 1517 1517 1516 1516 1516 1516 1516 1515 1515 1515
1516 1523 1517 1515 1515 1514 1514 1514 1514 1517 1519 1517 1521 1521 1520 1518 1518 1518 1519 1520 1519 1519 1518 1517 1517 1517 1517 1517 1516 1515 1514 1514 1515 1515 1516 1517 1515 1515 1513 1514 1515 1514 1514 1514 1515 1514 1514 1513 1513
1517 1514 1515 1514 1515 1516 1515 1514 1514 1516 1518 1518 1520 1522 1522 1520 1521 1522 1522 1522 1522 1521 1520 1520 1519 1518 1518 1517 1515 1514 1514 1514 1513 1513 1513 1513 1513 1512 1512 1512 1513 1512 1511 1510 1511 1512 1512 1512 1511
1516 1512 1513 1514 1514 1515 1515 1515 1515 1515 1517 1519 1521 1523 1521 1521 1522 1524 1524 1524 1523 1521 1521 1519 1519 1519 1518 1518 1516 1515 1513 1512 1512 1511 1510 1508 1508 1509 1509 1509 1510 1510 1510 1508 1507 1508 1508 1507 1508
1517 1513 1512 1510 1512 1512 1514 1515 1515 1519 1517 1520 1522 1523 1524 1525 1525 1525 1523 1523 1522 1521 1520 1520 1519 1517 1516 1515 1514 1514 1513 1510 1508 1507 1506 1506 1504 1503 1504 1504 1505 1504 1504 1503 1502 1502 1505 1505 1505
1515 1516 1512 1508 1507 1508 1509 1515 1516 1517 1517 1522 1526 1527 1526 1526 1527 1525 1524 1523 1522 1519 1519 1518 1517 1517 1515 1513 1511 1510 1509 1508 1506 1504 1502 1499 1499 1495 1495 1497 1498 1497 1497 1498 1499 1499 1498 1498 1499
1516 1516 1522 1508 1506 1507 1507 1521 1517 1519 1517 1525 1529 1530 1529 1528 1527 1526 1525 1524 1521 1519 1517 1516 1516 1516 1515 1513 1511 1508 1506 1504 1503 1501 1498 1496 1493 1491 1490 1489 1489 1490 1490 1491 1493 1492 1493 1491 1491
1519 1524 1523 1514 1507 1507 1509 1519 1517 1519 1517 1526 1530 1532 1532 1531 1530 1529 1528 1526 1523 1521 1519 1516 1514 1513 1512 1511 1510 1508 1505 1502 1499 1496 1494 1491 1489 1486 1483 1483 1483 1482 1481 1481 1483 1485 1483 1483 1483
1526 1524 1517 1515 1511 1508 1509 1515 1522 1524 1522 1526 1529 1532 1532 1531 1531 1530 1529 1527 1525 1522 1519 1517 1514 1513 1511 1509 1508 1505 1502 1499 1496 1493 1489 1486 1483 1480 1478 1476 1476 1475 1472 1472 1473 1475 1474 1474 1473
1517 1519 1519 1515 1509 1510 1514 1515 1525 1526 1527 1529 1531 1533 1534 1534 1533 1531 1529 1526 1524 1522 1519 1516 1513 1509 1505 1502 1498 1496 1495 1493 1492 1489 1486 1482 1478 1475 1471 1468 1468 1467 1465 1465 1466 1465 1466 1465 1465
1519 1518 1519 1516 1514 1513 1516 1520 1531 1531 1533 1533 1532 1534 1536 1535 1534 1533 1530 1527 1524 1520 1518 1515 1512 1508 1503 1498 1494 1490 1488 1487 1486 1484 1481 1477 1474 1469 1465 1462 1459 1459 1457 1456 1456 1458 1457 1454 1455
1514 1518 1517 1520 1520 1520 1519 1524 1528 1533 1534 1534 1535 1536 1536 1536 1535 1532 1529 1526 1523 1520 1516 1513 1509 1504 1500 1498 1495 1490 1486 1482 1479 1478 1476 1474 1469 1464 1460 1456 1453 1450 1449 1447 1446 1448 1450 1446 1445
1518 1513 1516 1520 1524 1534 1525 1537 1529 1530 1531 1533 1533 1534 1534 1534 1534 1532 1529 1525 1522 1518 1515 1511 1507 1503 1499 1495 1492 1487 1482 1475 1471 1468 1467 1466 1464 1459 1454 1450 1446 1442 1440 1437 1437 1437 1437 1440 1437
1512 1514 1517 1520 1527 1529 1528 1535 1525 1529 1532 1532 1532 1533 1533 1533 1532 1530 1528 1525 1522 1518 1514 1510 1506 1502 1497 1492 1489 1485 1481 1476 1471 1466 1461 1457 1455 1453 1448 1444 1439 1434 1431 1429 1427 1426 1426 1427 1427
1507 1515 1526 1534 1535 1538 1523 1525 1520 1528 1522 1528 1529 1530 1531 1531 1529 1528 1526 1523 1520 1516 1511 1506 1503 1500 1495 1491 1487 1483 1476 1472 1467 1463 1458 1454 1448 1444 1441 1437 1432 1427 1423 1420 1416 1414 1413 1413 1414
1509 1520 1537 1540 1544 1534 1518 1523 1510 1515 1517 1521 1523 1525 1527 1528 1526 1524 1523 1520 1516 1513 1509 1506 1503 1499 1494 1489 1486 1481 1476 1471 1465 1459 1452 1447 1440 1435 1431 1429 1425 1420 1417 1413 1406 1401 1399 1399 1399
1512 1513 1532 1529 1535 1529 1521 1523 1514 1516 1517 1520 1523 1524 1525 1525 1524 1523 1521 1519 1517 1514 1510 1506 1501 1497 1492 1488 1484 1479 1473 1467 1461 1456 1449 1444 1437 1432 1427 1423 1419 1414 1411 1404 1397 1391 1387 1386 1386
1508 1514 1508 1523 1530 1535 1523 1521 1517 1518 1519 1521 1523 1524 1522 1523 1523 1522 1521 1519 1515 1513 1509 1505 1501 1496 1490 1485 1481 1475 1469 1463 1458 1454 1449 1442 1436 1429 1424 1419 1412 1408 1403 1397 1390 1382 1377 1376 1374
1495 1501 1518 1527 1525 1528 1525 1522 1518 1515 1515 1518 1521 1521 1521 1521 1520 1520 1519 1516 1513 1509 1507 1504 1500 1492 1488 1484 1479 1472 1467 1463 1458 1452 1446 1439 1433 1427 1420 1414 1408 1402 1397 1390 1383 1374 1369 1364 1360
1501 1505 1508 1512 1519 1517 1520 1510 1501 1500 1505 1512 1516 1517 1518 1518 1518 1518 1517 1515 1512 1507 1504 1500 1498 1491 1486 1481 1476 1471 1466 1461 1456 1450 1444 1438 1431 1424 1418 1411 1404 1399 1392 1385 1377 1369 1362 1355 1351
1488 1496 1503 1523 1516 1528 1525 1500 1494 1495 1501 1507 1511 1513 1515 1516 1516 1516 1515 1513 1509 1507 1502 1498 1495 1490 1485 1480 1476 1470 1465 1459 1453 1447 1442 1437 1430 1424 1417 1410 1403 1396 1389 1382 1373 1364 1358 1349 1344